Tracking 25734 objects as of 29-May-2022
HD Live streaming from Space Station
objects crossing your sky now

BEIDOU 3 IGSO-2

Track BEIDOU 3 IGSO-2 now!


NORAD ID: 44337
Int'l Code: 2019-035A
Perigee: 35,699.1 km
Apogee: 35,895.7 km
Inclination: 55.1 °
Period: 1,436.3 minutes
Semi major axis: 42168 km
RCS: Unknown
Launch date: June 24, 2019
Source: People's Republic of China (PRC)
Launch site: Xichang Space Center, China (XSC)
aabbcc
Your satellite tracking list
Your tracking list is empty




NASA's NSSDC Master Catalog

Two Line Element Set (TLE):
1 44337U 19035A   22148.65797292 -.00000045  00000-0  00000-0 0  9993
2 44337  55.1143 171.8998 0023308 198.3502 230.6966  1.00258791 10858
Source of the keplerian elements: AFSPC